This demonstration page uses our WeatherBlox Daily Observations layout. Learn more.

Hourly Observations for December 1, 2017

Temp ( °F °C ) Dew Point ( °F °C ) Humidity (%) Winds ( mph kmh ) Pressure ( in mb ) Visibility ( mi km ) Precip ( " mm )
12:15 am 00:15 Clear 35 1.8 21 -6.1 56 56 SSW 6 9 30.21 1023 10 16.09344 0 0
12:35 am 00:35 Clear 35 1.7 21 -6.1 57 57 SSW 8 13 30.21 1023 10 16.09344 0 0
12:55 am 00:55 Clear 36 2 21 -6 56 56 SSW 10 17 30.18 1022 10 16.09344 0 0
1:15 am 01:15 Clear 34 1.2 21 -6.1 59 59 SSW 7 11 30.18 1022 10 16.09344 0 0
1:35 am 01:35 Clear 32 0 20 -6.4 62 62 S 5 7 30.21 1023 10 16.09344 0 0
1:55 am 01:55 Clear 30 -1 20 -6.5 67 67 S 3 6 30.21 1023 10 16.09344 0 0
2:15 am 02:15 Clear 28 -2.4 19 -7.3 69 69 S 3 6 30.21 1023 10 16.09344 0 0
2:35 am 02:35 Clear 26 -3.4 19 -7.2 75 75 Calm 30.24 1024 10 16.09344 0 0
2:55 am 02:55 Clear 26 -3.3 19 -7.2 75 75 S 3 6 30.24 1024 10 16.09344 0 0
3:15 am 03:15 Clear 24 -4.3 18 -7.6 78 78 Calm 30.24 1024 10 16.09344 0 0
3:35 am 03:35 Clear 30 -1.3 21 -6 71 71 SSW 8 13 30.18 1022 10 16.09344 0 0
3:55 am 03:55 Clear 29 -1.8 20 -6.5 71 71 S 5 7 30.18 1022 10 16.09344 0 0
4:15 am 04:15 Clear 28 -2.5 20 -6.5 74 74 S 7 11 30.18 1022 10 16.09344 0 0
4:35 am 04:35 Clear 27 -2.9 20 -6.5 77 77 S 5 7 30.21 1023 10 16.09344 0 0
4:55 am 04:55 Clear 26 -3.1 20 -6.5 78 78 S 5 7 30.21 1023 10 16.09344 0 0
5:15 am 05:15 Clear 26 -3.1 21 -6.3 79 79 S 3 6 30.21 1023 10 16.09344 0 0
5:35 am 05:35 Clear 24 -4.2 19 -7 81 81 S 5 7 30.18 1022 10 16.09344 0 0
5:55 am 05:55 Clear 26 -3.6 20 -6.6 80 80 S 5 7 30.18 1022 10 16.09344 0 0
6:15 am 06:15 Clear 25 -4.1 20 -6.5 84 84 S 3 6 30.18 1022 10 16.09344 0 0
6:35 am 06:35 Clear 27 -2.6 23 -5.2 83 83 S 3 6 30.15 1021 10 16.09344 0 0
6:55 am 06:55 Clear 27 -2.9 22 -5.5 82 82 SSW 3 6 30.15 1021 10 16.09344 0 0
7:15 am 07:15 Clear 28 -2.1 23 -4.8 82 82 S 6 9 30.15 1021 10 16.09344 0 0
7:35 am 07:35 Clear 28 -2.5 23 -5 83 83 S 6 9 30.15 1021 10 16.09344 0 0
7:55 am 07:55 Sunny 28 -2.2 24 -4.5 84 84 S 9 15 30.12 1020 10 16.09344 0 0
8:15 am 08:15 Sunny 28 -2 24 -4.5 83 83 S 8 13 30.12 1020 10 16.09344 0 0
8:35 am 08:35 Sunny 32 0.2 27 -2.9 80 80 S 10 17 30.12 1020 10 16.09344 0 0
8:55 am 08:55 Sunny 36 2.3 28 -2.5 71 71 SSW 16 26 30.12 1020 10 16.09344 0 0
9:15 am 09:15 Sunny 38 3.2 28 -2.2 68 68 S 12 19 30.09 1019 10 16.09344 0 0
9:35 am 09:35 Sunny 40 4.2 28 -2.1 64 64 S 12 19 30.09 1019 10 16.09344 0 0
9:55 am 09:55 Sunny 41 5.1 28 -2.1 60 60 SSW 10 17 30.09 1019 10 16.09344 0 0
10:15 am 10:15 Sunny 42 5.6 28 -2 58 58 SSW 15 24 30.06 1018 10 16.09344 0 0
10:35 am 10:35 Sunny 43 6.2 29 -1.8 57 57 SSW 12 19 30.03 1017 10 16.09344 0 0
10:55 am 10:55 Sunny 45 7 29 -1.4 55 55 SW 12 19 30.03 1017 10 16.09344 0 0
11:15 am 11:15 Sunny 46 7.5 29 -1.4 54 54 SW 10 17 30.03 1017 10 16.09344 0 0
11:35 am 11:35 Sunny 47 8.1 30 -1.2 52 52 SW 8 13 30.03 1017 10 16.09344 0 0
11:55 am 11:55 Sunny 47 8.3 30 -1.2 52 52 SW 6 9 30.03 1017 10 16.09344 0 0
12:15 pm 12:15 Sunny 49 9.2 30 -1.1 49 49 WSW 8 13 30 1016 10 16.09344 0 0
12:35 pm 12:35 Sunny 48 9.1 30 -1.3 48 48 SW 6 9 30.03 1017 10 16.09344 0 0
12:55 pm 12:55 Sunny 49 9.2 30 -1.3 48 48 W 6 9 30 1016 10 16.09344 0 0
1:15 pm 13:15 Sunny 49 9.3 29 -1.5 47 47 SSW 3 6 29.97 1015 10 16.09344 0 0
1:35 pm 13:35 Sunny 49 9.6 30 -1.3 47 47 SSW 5 7 29.97 1015 10 16.09344 0 0
1:55 pm 13:55 Sunny 51 10.3 30 -1.2 45 45 SSW 7 11 29.97 1015 10 16.09344 0 0
2:15 pm 14:15 Sunny 51 10.3 30 -1.2 45 45 WSW 3 6 29.94 1014 10 16.09344 0 0
2:35 pm 14:35 Sunny 52 11 30 -1.3 43 43 SW 5 7 29.94 1014 10 16.09344 0 0
2:55 pm 14:55 Sunny 51 10.8 29 -1.4 43 43 Calm 29.94 1014 10 16.09344 0 0
3:15 pm 15:15 Sunny 52 11.2 30 -1.2 42 42 SW 5 7 29.94 1014 10 16.09344 0 0
3:35 pm 15:35 Sunny 52 11.1 30 -1.3 42 42 Calm 29.97 1015 10 16.09344 0 0
3:55 pm 15:55 Sunny 52 11.2 30 -1.2 42 42 Calm 29.97 1015 10 16.09344 0 0
4:15 pm 16:15 Sunny 52 11 30 -1.3 43 43 Calm 29.97 1015 10 16.09344 0 0
4:35 pm 16:35 Sunny 51 10.5 30 -1.3 44 44 NW 3 6 29.97 1015 10 16.09344 0 0
4:55 pm 16:55 Sunny 49 9.7 29 -1.6 46 46 Calm 29.97 1015 10 16.09344 0 0
5:15 pm 17:15 Clear 45 7 27 -2.6 51 51 Calm 30.03 1017 10 16.09344 0 0
5:35 pm 17:35 Clear 43 6.1 28 -2 56 56 Calm 30.03 1017 10 16.09344 0 0
5:55 pm 17:55 Clear 40 4.3 18 -7.6 42 42 S 9 15 30.21 1023 10 16.09344 0 0
6:15 pm 18:15 Clear 40 4.3 27 -3 59 59 Calm 30.09 1019 10 16.09344 0 0
6:35 pm 18:35 Clear 38 3.1 27 -3 65 65 Calm 30.09 1019 10 16.09344 0 0
6:55 pm 18:55 Clear 36 2.4 26 -3.4 66 66 NNE 5 7 30.12 1020 10 16.09344 0 0
7:15 pm 19:15 Clear 35 1.5 24 -4.5 65 65 N 3 6 30.12 1020 7 11.265408 0 0
7:35 pm 19:35 Clear 35 1.9 24 -4.2 64 64 Calm 30.15 1021 10 16.09344 0 0
7:55 pm 19:55 Clear 32 0.2 24 -4.3 72 72 Calm 30.15 1021 7 11.265408 0 0
8:15 pm 20:15 Clear 33 0.7 25 -3.8 72 72 NNW 5 7 30.15 1021 10 16.09344 0 0
8:35 pm 20:35 Clear 33 0.5 25 -3.8 73 73 NNW 3 6 30.15 1021 10 16.09344 0 0
8:55 pm 20:55 Clear 31 -0.6 24 -4.7 74 74 N 3 6 30.18 1022 10 16.09344 0 0
9:15 pm 21:15 Clear 31 -0.5 24 -4.3 76 76 NW 7 11 30.21 1023 10 16.09344 0 0
9:35 pm 21:35 Clear 32 0 25 -3.8 76 76 NNW 7 11 30.21 1023 10 16.09344 0 0
9:55 pm 21:55 Clear 33 0.7 26 -3.5 74 74 NNW 3 6 30.18 1022 10 16.09344 0 0
10:15 pm 22:15 Clear 34 0.9 26 -3.4 73 73 NW 7 11 30.18 1022 10 16.09344 0 0
10:35 pm 22:35 Partly Cloudy 34 1.2 26 -3.3 72 72 N 5 7 30.18 1022 10 16.09344 0 0
10:55 pm 22:55 Partly Cloudy 34 1 26 -3.4 73 73 NW 6 9 30.18 1022 10 16.09344 0 0
11:15 pm 23:15 Clear 32 0 25 -4.1 74 74 NW 6 9 30.21 1023 10 16.09344 0 0
11:35 pm 23:35 Clear 32 0 25 -4.1 74 74 NW 6 9 30.21 1023 10 16.09344 0 0
11:55 pm 23:55 Clear 31 -0.6 24 -4.4 76 76 NW 6 9 30.24 1024 10 16.09344 0 0

Powered by AerisWeather